Lexington Weather

Lexington, Massachusetts, USA

75°F
9/22/2021 12:47pm 
  • Lexington Conditions: Overcast
  • Temperature: 75.2°F / 24.0°CWarmer 0.5°F than last hour.
  • Dew Point: 68.2°FDecreased 0.5°Fsince last hour.
  • Relative Humidity: 79%Decreased 3.0% since last hour.
  • Wind: Wind from SSW SSW 5 mph, 10-min avg: 3 mph, gust: 12 mph
  • Barometer: 30.11 inFalling 0.02  inHg/hr Falling Slowly
  • Visibility: 10 miles
  • Rain Today: 0.00 in
  •   

Regional Weather Roundup
for Boston / Norton, MA

        
000
ASUS41 KBOX 200604
RWRBOX

REGIONAL WEATHER ROUNDUP
NATIONAL WEATHER SERVICE BOSTON/NORTON MA
200 AM EDT MON SEP 20 2021

NOTE:  "FAIR" INDICATES FEW OR NO CLOUDS BELOW 12,000 FEET WITH NO 
SIGNIFICANT WEATHER AND/OR OBSTRUCTIONS TO VISIBILITY.

MAZALL-200700-
EASTERN MASSACHUSETTS
  
CITY           SKY/WX    TMP DP  RH WIND       PRES   REMARKS
BOSTON         CLEAR     62  51  67 CALM      30.28R                  
6HR MIN TEMP:  62; 6HR MAX TEMP:  65;                                

BEVERLY        CLEAR     54  53  97 CALM      30.27R                  
LAWRENCE       CLEAR     55  53  93 CALM      30.29S                  
BEDFORD        CLEAR     52  52 100 CALM      30.27R                  
BLUE HILL      NOT AVBL                                               
NORWOOD        PTCLDY    49  47  93 CALM      30.28R                  
MARSHFIELD     CLEAR     52  52 100 CALM      30.27R                  
PLYMOUTH       CLEAR     50  49  96 CALM      30.27R                  
TAUNTON        CLEAR     49  47  93 CALM      30.27R                  
NEW BEDFORD    CLEAR     51  50  96 CALM      30.26S                  
$$

MAZALL-200700-
CAPE COD AND THE ISLANDS
  
CITY           SKY/WX    TMP DP  RH WIND       PRES   REMARKS
FALMOUTH       CLEAR     52  52 100 CALM      30.25S                  
HYANNIS        CLEAR     49  47  93 CALM      30.26R                  
CHATHAM        CLEAR     54  52  93 NW3       30.27R                  
PROVINCETOWN   CLEAR     50  48  93 CALM      30.28R                  
NANTUCKET      CLEAR     52  47  83 N3        30.26R                  
MARTHAS VNYRD  CLEAR     46  44  93 NW3       30.26R                  
$$
 
MAZALL-200700-
CENTRAL AND WESTERN MASSACHUSETTS
  
CITY           SKY/WX    TMP DP  RH WIND       PRES   REMARKS
WORCESTER      CLEAR     60  50  69 N3        30.28S                  
6HR MIN TEMP:  55; 6HR MAX TEMP:  64;                                

FITCHBURG      CLEAR     52  50  93 CALM      30.28R                  
ORANGE         CLEAR     49  48  97 CALM      30.30R                  
SPRINGFIELD    CLEAR     51  51  99 CALM      30.27R                  
WESTFIELD      CLEAR     52  52 100 CALM      30.27R                  
NORTH ADAMS    CLEAR     49  46  90 CALM      30.30R                  
PITTSFIELD     CLEAR     49  47  93 CALM      30.28R                  
$$
 
RIZALL-200700-
RHODE ISLAND
  
CITY           SKY/WX    TMP DP  RH WIND       PRES   REMARKS
PROVIDENCE     CLEAR     57  54  89 CALM      30.28R                  
6HR MIN TEMP:  56; 6HR MAX TEMP:  65;                                

NEWPORT        CLEAR     56  52  86 E3        30.27R                  
SMITHFIELD     CLEAR     50  49  96 CALM      30.28R                  
WESTERLY       CLEAR     53  53 100 CALM      30.27R                  
$$
 
CTZALL-200700-
CONNECTICUT
  
CITY           SKY/WX    TMP DP  RH WIND       PRES   REMARKS
BRADLEY INTL   CLEAR     54  53  97 N6        30.26S                  
6HR MIN TEMP:  53; 6HR MAX TEMP:  61;                                

HARTFORD       CLEAR     57  54  89 CALM      30.26R                  
BRIDGEPORT     CLEAR     61  55  81 N5        30.25S                  
DANBURY        CLEAR     54  51  90 CALM      30.28R                  
GROTON         CLEAR     55  55 100 N3        30.26S                  
NEW HAVEN      CLEAR     57  53  86 CALM      30.26R                  
CHESTER        FAIR      55  55 100 CALM      30.26S                  
MERIDEN        CLEAR     54  51  90 CALM      30.26S                  
WILLIMANTIC    FOG       54  53  97 N3        30.29R VSB 1/2          
OXFORD         CLEAR     54  53  97 CALM      30.27S                  
$$

MEZ002-015-021-024-NHZ003-005-008-011-012-014-VTZ005-008-200700-
NORTHERN NEW ENGLAND
  
CITY           SKY/WX    TMP DP  RH WIND       PRES   REMARKS
PORTLAND ME    CLEAR     50  49  96 N3        30.29R                  
6HR MIN TEMP:  50; 6HR MAX TEMP:  61;                                

BANGOR ME      CLEAR     47  45  93 CALM      30.29R                  
CONCORD NH     CLEAR     49  47  93 CALM      30.29R                  
MANCHESTER NH  PTCLDY    57  52  82 N6        30.26R                  
NASHUA NH      CLEAR     52  52 100 NW3       30.28R                  
PORTSMOUTH NH  CLEAR     53  52  94 CALM      30.29R                  
JAFFREY NH     CLEAR     49  49 100 CALM      30.29S                  
KEENE NH       FOG       50  50 100 CALM      30.30S VSB 1            
BURLINGTON VT  CLEAR     50  48  93 E5        30.28S                  
MT. WASHINGTON PTCLDY    46   3  17 NW9         N/A                   
$$

NYZ052-076-200700-
EASTERN NEW YORK
  
CITY           SKY/WX    TMP DP  RH WIND       PRES   REMARKS
ALBANY         CLEAR     51  51 100 CALM      30.28R                  
6HR MIN TEMP:  51; 6HR MAX TEMP:  59;                                

NEW YORK CITY  PTCLDY    68  57  68 CALM      30.25R                  
6HR MIN TEMP:  68; 6HR MAX TEMP:  73;                                

$$
 
ANZALL-200700-
MARINE OBSERVATIONS
  
STATION/POSITION TIME  TEMP    WIND        PRES    VSBY  WAVE
                       AIR SEA DIR/SP/G                  HT/PER
                 (UTC) (F)     (DEG/KT/KT) (MB)    (MI)  (FT/S)
BOSTON BUOY      0540      65  310/  2/  4 1025.2R
BUZZARDS BAY     0500           70/  5/  6 1025.8R
NANTUCKET SOUND  0540   67 72   60/  6/  8 1024.5R
MASS BAY-STELLWA 0504   65     260/  4/  4 1024.4R  1 7/8  3/11
ISLE OF SHOALS   0500   62     310/  5/  6 1024.6R
S OF BLOCK IS    0526      71                N/A           3/ 8
$$

......................KEY.........................
  SKY/WX - SKY CONDITION/PRESENT WEATHER
  TMP    - TEMPERATURE IN FAHRENHEIT
  DWPT   - DEWPOINT IN FAHRENHEIT
  RH     - RELATIVE HUMIDITY IN PERCENT
  WIND   - DIRECTION AND SPEED IN MPH
  PRES   - MEAN SEA LEVEL PRESSURE IN INCHES OF HG
  WCI    - WIND CHILL INDEX
  VSB    - VISIBILITY IN MILES
  HX     - HEAT INDEX
  TC     - TEMPERATURE IN CELSIUS
  VRB    - VARIABLE WIND DIRECTION
  N/A    - NOT AVAILABLE
  
      

Other recent Regional Weather Roundups

Wed Sep 22, 12:05pm

Wed Sep 22, 11:04am

Wed Sep 22, 10:04am

Wed Sep 22, 9:04am

Wed Sep 22, 8:04am

Wed Sep 22, 7:04am

Wed Sep 22, 6:04am

Wed Sep 22, 5:04am

Wed Sep 22, 4:04am

Wed Sep 22, 3:04am

Wed Sep 22, 2:04am

Wed Sep 22, 1:04am

Wed Sep 22, 12:04am

Tue Sep 21, 11:04pm

Tue Sep 21, 10:04pm

Tue Sep 21, 9:04pm

Tue Sep 21, 8:04pm

Tue Sep 21, 7:04pm

Tue Sep 21, 6:04pm

Tue Sep 21, 5:04pm

Tue Sep 21, 4:04pm

Tue Sep 21, 3:04pm

Tue Sep 21, 2:04pm

Tue Sep 21, 1:04pm

Tue Sep 21, 12:04pm

Tue Sep 21, 11:04am

Tue Sep 21, 10:04am

Tue Sep 21, 9:04am

Tue Sep 21, 8:04am

Tue Sep 21, 7:04am

Tue Sep 21, 6:04am

Tue Sep 21, 5:04am

Tue Sep 21, 4:04am

Tue Sep 21, 3:04am

Tue Sep 21, 2:04am

Tue Sep 21, 1:04am

Tue Sep 21, 12:04am

Mon Sep 20, 11:04pm

Mon Sep 20, 10:04pm

Mon Sep 20, 9:04pm

Mon Sep 20, 8:04pm

Mon Sep 20, 7:04pm

Mon Sep 20, 6:04pm

Mon Sep 20, 5:04pm

Mon Sep 20, 4:04pm

Mon Sep 20, 3:04pm

Mon Sep 20, 2:04pm

Mon Sep 20, 1:04pm

Mon Sep 20, 12:04pm

Mon Sep 20, 11:04am

Mon Sep 20, 10:04am

Mon Sep 20, 9:04am

Mon Sep 20, 7:04am

Mon Sep 20, 6:04am

Mon Sep 20, 5:04am

Mon Sep 20, 4:04am

Mon Sep 20, 3:04am

Mon Sep 20, 1:04am

Mon Sep 20, 12:04am

Sun Sep 19, 11:04pm

Sun Sep 19, 10:04pm

Sun Sep 19, 9:04pm

Sun Sep 19, 8:04pm

Sun Sep 19, 7:04pm

Sun Sep 19, 6:04pm

Sun Sep 19, 5:04pm

Sun Sep 19, 4:04pm

Sun Sep 19, 3:04pm

Sun Sep 19, 2:05pm

Sun Sep 19, 1:04pm

Sun Sep 19, 12:04pm

Sun Sep 19, 11:04am

Sun Sep 19, 10:05am

Sun Sep 19, 9:04am

Sun Sep 19, 8:04am

Sun Sep 19, 7:04am

Sun Sep 19, 6:04am

Sun Sep 19, 5:04am

Sun Sep 19, 4:04am

Sun Sep 19, 3:04am

Sun Sep 19, 2:04am

Sun Sep 19, 1:04am

Sun Sep 19, 12:04am

Sat Sep 18, 11:05pm

Sat Sep 18, 10:04pm

Sat Sep 18, 9:04pm

Sat Sep 18, 8:04pm

Sat Sep 18, 7:04pm

Sat Sep 18, 6:04pm

Sat Sep 18, 5:04pm

Sat Sep 18, 4:04pm

Sat Sep 18, 3:04pm

Sat Sep 18, 2:04pm

Sat Sep 18, 1:04pm

Sat Sep 18, 12:04pm

Sat Sep 18, 11:04am

Sat Sep 18, 10:04am

Sat Sep 18, 9:04am

Sat Sep 18, 8:04am

Sat Sep 18, 7:04am

Sat Sep 18, 6:04am

Sat Sep 18, 5:04am

Sat Sep 18, 4:04am

Sat Sep 18, 3:04am

Sat Sep 18, 2:04am

Sat Sep 18, 1:04am

Sat Sep 18, 12:04am

Fri Sep 17, 11:04pm

Fri Sep 17, 10:04pm

Fri Sep 17, 9:04pm

Fri Sep 17, 8:04pm

Fri Sep 17, 7:04pm

Fri Sep 17, 6:04pm

Fri Sep 17, 5:04pm

Fri Sep 17, 4:04pm

Fri Sep 17, 3:04pm

Fri Sep 17, 2:04pm

Fri Sep 17, 1:04pm

Fri Sep 17, 12:05pm

Fri Sep 17, 11:04am

Fri Sep 17, 10:04am

Fri Sep 17, 9:04am

Fri Sep 17, 8:04am

Fri Sep 17, 7:04am

Fri Sep 17, 6:04am

Fri Sep 17, 5:04am

Fri Sep 17, 4:04am

Fri Sep 17, 3:04am

Fri Sep 17, 2:04am

Fri Sep 17, 1:04am

Fri Sep 17, 12:04am

Thu Sep 16, 11:04pm

Thu Sep 16, 10:04pm

Thu Sep 16, 9:04pm

Thu Sep 16, 8:04pm

Thu Sep 16, 7:04pm

Thu Sep 16, 6:04pm

Thu Sep 16, 5:04pm

Thu Sep 16, 4:04pm

Thu Sep 16, 3:04pm

Thu Sep 16, 2:04pm

Thu Sep 16, 1:05pm

Thu Sep 16, 12:04pm

Thu Sep 16, 11:05am

Thu Sep 16, 10:05am

Thu Sep 16, 9:04am

Thu Sep 16, 8:04am

Thu Sep 16, 7:04am

Thu Sep 16, 6:04am

Thu Sep 16, 5:04am

Thu Sep 16, 4:04am

Thu Sep 16, 3:04am

Thu Sep 16, 2:04am

Thu Sep 16, 1:04am

Thu Sep 16, 12:04am

Wed Sep 15, 11:04pm

Wed Sep 15, 10:04pm

Wed Sep 15, 9:04pm

Wed Sep 15, 8:04pm

Wed Sep 15, 7:04pm

Wed Sep 15, 6:04pm

Wed Sep 15, 5:05pm

Wed Sep 15, 4:04pm

Wed Sep 15, 3:04pm

Wed Sep 15, 2:04pm

Wed Sep 15, 1:04pm

Meta data:

ID: 94d9e5eb-bd95-4a97-81c3-41165bae7ad1
Link: https://api.weather.gov/products/94d9e5eb-bd95-4a97-81c3-41165bae7ad1